Regional Weather Roundup
Issued by NWS Charleston, SC

Current Version | Previous Version | Graphics & Text | Print | Product List | Glossary On
Versions: 1 2 3 4 5 6 7 8 9 10 11 12 13 14 15 16 17 18 19 20 21 22 23 24 25 26 27 28 29 30 31 32 33 34 35 36 37 38 39 40 41 42 43 44 45 46 47 48 49 50
000 ASUS42 KCHS 232027 RWRCHS REGIONAL WEATHER ROUNDUP NATIONAL WEATHER SERVICE CHARLESTON SC 400 PM EDT SUN APR 23 2017 NOTE: "FAIR" INDICATES FEW OR NO CLOUDS BELOW 12,000 FEET WITH NO SIGNIFICANT WEATHER AND/OR OBSTRUCTIONS TO VISIBILITY. NOT ALL STATIONS ARE QUALITY CONTROLLED. USE DATA WITH CAUTION... ESPECIALLY DEWPOINT OBSERVATIONS. SCZ027-030-031-034>040-042>050-232100- ...SOUTHEAST SOUTH CAROLINA... CITY SKY/WX TMP DP RH WIND PRES REMARKS N CHARLESTON MOSUNNY 81 67 62 S20G25 29.80F WATERFRONT PRK N/A 76 71 84 S13 29.79F JOHNS ISLAND FAIR 79 72 78 SE10G17 29.80F PINOPOLIS N/A 81 70 69 S9 29.72F MONCKS CORNER MOCLDY 81 64 57 SE10G17 29.78F SUMMERVILLE CLOUDY 82 66 57 SE6G17 29.79F BEAUFORT MCAS SUNNY 82 69 64 S10G18 29.77F BEAUFORT ARPT FAIR 79 68 69 S10G16 29.77F HILTON HEAD IS SUNNY 79 68 69 S9 29.80F WALTERBORO PTCLDY 81 64 57 SE15 29.77F ALLENDALE MOCLDY 84 61 45 VRB7 29.72F ...SOUTHERN MIDLANDS AND PEE DEE... CITY SKY/WX TMP DP RH WIND PRES REMARKS GEORGETOWN CLOUDY 72 70 94 E13G18 29.84F KINGSTREE CLOUDY 66 61 82 NE7 29.83F ORANGEBURG CLOUDY 75 66 73 VRB7 29.77F BARNWELL FAIR 88 61 40 S8G15 29.73F AIKEN LGT RAIN 63 61 94 NE12 29.82S MANNING MOCLDY 68 64 88 E9G26 29.80F COLUMBIA LGT RAIN 69 58 67 NE14 29.80F SUMTER CLOUDY 69 59 72 NE16 29.80F FLORENCE LGT RAIN 61 60 97 E12 29.89S MYRTLE BEACH CLOUDY 72 64 78 E17 29.87F N MYRTLE BEACH CLOUDY 70 65 84 E9 29.87F $$ GAZ063-065-086>088-099>101-113>116-118-119-134>141-150-232100- ...SOUTHEAST GEORGIA... CITY SKY/WX TMP DP RH WIND PRES REMARKS SAVANNAH ARPT PTSUNNY 86 60 41 SE15 29.76F HUNTER AAF SUNNY 83 69 61 SE12 29.75F FORT STEWART MOSUNNY 88 62 41 S9 29.73F STATESBORO MOSUNNY 87 57 37 S9 29.73F SYLVANIA PTCLDY 88 59 37 S7 29.74F CLAXTON FAIR 85 63 47 S6 29.74F ...CSRA...CENTRAL AND FAR SOUTHEAST GEORGIA... CITY SKY/WX TMP DP RH WIND PRES REMARKS THOMSON CLOUDY 73 62 67 E16 29.78F AUGUSTA-BUSH CLOUDY 86 60 41 S14 29.72F AUGUSTA-DANIEL CLOUDY 75 61 61 N15 29.75F SWAINSBORO FAIR 84 55 37 S9 29.74F VIDALIA MOSUNNY 86 59 39 SW12G20 29.74F EASTMAN MOCLDY 83 38 19 SW9G18 29.76F HAZLEHURST FAIR 86 60 41 S9 29.73F ALMA MOSUNNY 87 60 40 SW9 29.74F WAYCROSS MOSUNNY 90 64 41 S10G17 29.74F HX 91 JESUP FAIR 88 55 33 S9 29.74F BAXLEY CLOUDY 86 64 48 S9 29.74F BRUNSWICK SUNNY 82 68 61 SE16 29.77F SAINT SIMONS SUNNY 79 66 64 SE15 29.77F $$ SCZ027-028-034-036>038-045-046-048>050-GAZ119-141-232100- ...LAKE AND SUPPLEMENTAL COASTAL OBSERVATIONS... STATION/POSITION TIME TEMP WIND PRES WAVE SWELL AIR SEA DIR/SP/G HT/PER HT/PER/DIR (UTC) (F) (DEG/KT/KT) (MB) (FT/S) (FT/S/D) WINYAH BAY 1930 71 80/ 13 1011.0S LAKE MURRAY 2020 62 40/ 6/ 9 1008.8 ACE BASIN NERRS 1930 79 170/ 3 1009.0F FORT PULASKI 2000 79 75 170/ 10/ 14 1008.3 SAPELO ISLAND 1945 81 150/ 14 1008.0F $$ ANZ835-935-AMZ111-154-330-350-352-354-370-450-454-472-232100- ...C-MAN AND BUOY OBSERVATIONS... STATION/POSITION TIME TEMP WIND PRES WAVE SWELL AIR SEA DIR/SP/G HT/PER HT/PER/DIR (UTC) (F) (DEG/KT/KT) (MB) (FT/S) (FT/S/D) BUOY 41004 2010 76 75 180/ 10/ 12 1010.0 BUOY 41008 1950 74 73 170/ 12/ 14 1008.6F 3/12 2/100/12 FOLLY BEACH CMAN 2000 75 140/ 12/ 13 1010.3F CAPERS NEARSHORE 2008 75 74 150/ 10/ 16 1009.5F FRIPP NEARSHORE 2008 74 75 180/ 12/ 16 1008.1F STATION/POSITION TIME TEMP WIND PRES WAVE SWELL AIR SEA DIR/SP/G HT/PER HT/PER/DIR (UTC) (F) (DEG/KT/KT) (MB) (FT/S) (FT/S/D) 5E ST. MARYS GA 2000 74 N/A 3/12 2/100/12 FRYING PAN BUOY 2010 75 75 70/ 6/ 8 1011.0 BUOY 41025 1950 66 76 20/ 19/ 23 1013.5F 6/11 3/ 70/11 CAPE LOOKOUT NC 2000 63 30/ 21/ 23 1013.6F BUOY 41002 1950 73 75 160/ 10/ 14 1013.7F 4/11 3/ 40/11 BUOY 41010 2010 75 78 160/ 16/ 19 1009.9 ST AUGUSTINE FL 2000 74 77 140/ 16/ 17 1009.9F $$

USA.gov is the U.S. government's official web portal to all federal, state and local government web resources and services.